Location: Beutels
(47.8767°N, 9.8584°E)
Time: 19:46:04
(UTC+00:00)

ISS - Pass Details

Date: 25 January 2026
Orbit: 413 x 429 km, 51.6° (Epoch: 11 February)

Event Time Altitude Azimuth Distance (km) Brightness Sun altitude
Rises 17:43:29 0° 292° (WNW) 2,366 1.0 -15.6°
Reaches altitude 10° 17:45:35 10° 294° (WNW) 1,503 -0.1 -15.9°
Maximum altitude 17:48:58 82° 21° (NNE) 430 -3.9 -16.5°
Enters shadow 17:50:00 42° 105° (ESE) 616 -3.4 -16.7°
